Location: Foots Cray
(51.4000°N, 0.1167°E)
Time: 23:23:25
(UTC+00:00)

Cosmos 2221 - Pass Details

Date: 15 May 2026
Orbit: 569 x 586 km, 82.5° (Epoch: 6 June)

Event Time Altitude Azimuth Distance (km) Brightness Sun altitude
Exits shadow 23:39:35 38° 225° (SW) 896 3.0 -19.5°
Maximum altitude 23:40:56 57° 284° (WNW) 685 2.8 -19.5°
Drops below altitude 10° 23:45:05 10° 4° (N) 1,910 6.3 -19.5°
Sets 23:47:20 0° 8° (N) 2,817 7.5 -19.5°
